Tracking 19575 objects as of 18-Feb-2019
HD Live streaming from Space Station
objects crossing your sky now

GGSE 5

Track GGSE 5 now!
10-day predictions
GGSE 5 is classified as:


NORAD ID: 2834
Int'l Code: 1967-053D
Perigee: 912.2 km
Apogee: 918.8 km
Inclination: 70.0 °
Period: 103.2 minutes
Semi major axis: 7286 km
RCS: 0.7606 m2 (medium)
Launch date: May 31, 1967
Source: United States (US)
Launch site: AIR FORCE WESTERN TEST RANGE (AFWTR)
aabbcc
Your satellite tracking list
Your tracking list is empty




NASA's NSSDC Master Catalog

Two Line Element Set (TLE):
1  2834U 67053D   19049.21079672 -.00000015  00000-0  27716-4 0  9999
2  2834  69.9723 100.5684 0004590  71.8081 288.3523 13.95803504633283
Source of the keplerian elements: AFSPC